Location: Brno
(49.2000°N, 16.6330°E)
Time: 23:47:27
(UTC+02:00)

Vanguard 3 - Pass Details

Date: 27 July 2021
Orbit: 510 x 3260 km, 33.3° (Epoch: 22 September)

Event Time Altitude Azimuth Distance (km) Brightness Sun altitude
Rises 21:51:43 0° 250° (WSW) 6,727 12.2 -10.0°
Reaches altitude 10° 21:56:08 10° 245° (WSW) 5,927 11.8 -10.5°
Maximum altitude 22:14:05 48° 180° (S) 3,871 10.2 -12.5°
Drops below altitude 10° 22:30:20 10° 114° (ESE) 5,420 10.8 -14.1°
Enters shadow 22:31:23 - 112° (ESE) 5,606 10.9 -14.2°
